DRAUGEN current weather conditions

sailwx.info

Wind from 110 at 20 knots

Air temperature 7.0° C
Dewpoint 1.0° C

Last reported at 2015-Mar-28 17:20 UTC.
Time now 2015-Mar-28 18:51 UTC

Location: N 64°22' E 007°47'.
View on Google Maps.

See reports from other nearby stations

  
Tides and Currents Weather Stations Pressure Air Temp Water Temp Dewpoint Dewpoint Depression Visibility Wind Speed Wind Dir Waves Ship Positions
date/time (UTC)wind fromknots sea level pressurealtimeterstation pressurevisibilityair tempwater tempwave heightnotes
2015-Mar-28 17:20 110 20 7.0
2015-Mar-28 16:50 110 19 7.0
2015-Mar-28 16:20 120 17 7.0
2015-Mar-28 15:50 120 16 7.0
2015-Mar-28 15:10 140 16 5.4 6.0
2015-Mar-28 14:50 140 15 6.0
2015-Mar-28 14:20 160 14 6.0
2015-Mar-28 13:50 170 14 6.0
2015-Mar-28 13:20 200 17 6.0
2015-Mar-28 12:50 200 22 6.0
2015-Mar-28 12:10 210 27 5.4 6.0
2015-Mar-28 11:50 210 27 6.0
2015-Mar-28 11:20 200 30 6.0
2015-Mar-28 10:50 220 32 4.0
2015-Mar-28 10:20 200 27 5.0
2015-Mar-28 09:50 210 30 5.0
2015-Mar-28 08:50 210 27 5.0
2015-Mar-28 08:20 210 24 5.0
2015-Mar-28 07:50 210 27 5.0
2015-Mar-28 07:20 230 20 4.0
2015-Mar-28 06:50 200 30 5.0
2015-Mar-28 06:20 800 3.0 Light rain.
2015-Mar-28 05:50 210 25 4.0
2015-Mar-28 05:20 220 27 4.0
2015-Mar-28 04:50 230 35 3.0
2015-Mar-28 04:20 210 27 5.0
2015-Mar-28 03:50 200 34 5.0
2015-Mar-28 03:20 200 37 5.0
2015-Mar-28 02:50 200 32 6.0
2015-Mar-28 02:20 210 32 5.0
2015-Mar-28 01:50 200 25 5.0
2015-Mar-28 01:20 210 19 5.0
2015-Mar-28 00:50 210 20 6.0
2015-Mar-28 00:20 220 20 5.0
2015-Mar-27 23:50 220 18 5.0
2015-Mar-27 23:20 230 18 5.0
2015-Mar-27 22:50 230 16 5.0
2015-Mar-27 22:20 240 15 5.0
2015-Mar-27 21:50 230 13 5.0
2015-Mar-27 21:20 250 11 4.0
2015-Mar-27 20:50 220 10 5.0
2015-Mar-27 20:20 220 12 4.0
2015-Mar-27 19:50 210 10 4.0
2015-Mar-27 19:20 230 14 4.0
2015-Mar-27 18:50 230 12 5.0
2015-Mar-27 18:20 230 14 5.0
2015-Mar-27 17:50 220 16 5.0
2015-Mar-27 17:20 220 16 5.0
2015-Mar-27 16:50 220 20 5.0
2015-Mar-27 16:20 230 17 5.0
2015-Mar-27 15:50 230 18 5.0
2015-Mar-27 15:10 220 20 5.4 5.0
2015-Mar-27 14:50 240 13 4.0
2015-Mar-27 14:20 220 20 5.0
2015-Mar-27 13:50 210 20 5.0
2015-Mar-27 13:20 210 20 5.0
2015-Mar-27 12:50 210 22 4.0
2015-Mar-27 12:10 200 24 5.4 4.0 Light rain.
2015-Mar-27 11:50 200 24 4.0
2015-Mar-27 11:20 200 23 4.0
2015-Mar-27 10:50 4.0
2015-Mar-27 10:20 200 24 5.0
2015-Mar-27 09:50 200 24 5.0
2015-Mar-27 09:10 200 23 5.0
2015-Mar-27 08:50 190 23 5.0
2015-Mar-27 08:20 200 24 5.0
2015-Mar-27 07:50 200 23 5.0
2015-Mar-27 07:20 200 23 5.0
2015-Mar-27 06:50 190 22 5.0
2015-Mar-27 06:10 200 22 5.0
2015-Mar-27 05:50 190 20 5.0
2015-Mar-27 05:20 200 19 5.0
2015-Mar-27 04:50 200 20 5.0
2015-Mar-27 04:20 200 19 5.0
2015-Mar-27 03:50 210 20 5.0
2015-Mar-27 03:20 210 22 5.0
2015-Mar-27 02:50 210 23 5.0
2015-Mar-27 02:20 210 23 5.0
2015-Mar-27 01:50 220 24 5.0
2015-Mar-27 01:20 210 24 5.0
2015-Mar-27 00:50 210 24 4.0
2015-Mar-27 00:20 210 22 4.0
2015-Mar-26 23:50 210 20 4.0
2015-Mar-26 23:20 210 24 3.0
2015-Mar-26 22:50 220 23 4.0
2015-Mar-26 22:20 210 22 4.0
2015-Mar-26 21:50 210 22 4.0
2015-Mar-26 21:20 210 20 4.0
2015-Mar-26 20:50 220 19 4.0
2015-Mar-26 20:20 230 15 4.0
2015-Mar-26 19:50 210 12 2.0
2015-Mar-26 19:20 210 19 4.0
2015-Mar-26 18:50 150 24 5.0
2015-Mar-26 18:20 140 29 4.0